Back to catalog

FENGYUN 1C DEB

AlivePO
NORAD 29800·DEBRIS·🇨🇳 China

Launched May 10, 1999 from Taiyuan Satellite Launch Center

Loading…

Next Passes (next 24 hours)

TLE

FreshSource: Space-Track

Epoch: Sep 12, 2026, 23:48 UTC

1 29800U 99025CS  26255.99195334  .00001638  00000-0  10592-2 0  9994
2 29800  98.2806 256.6279 0131133 173.8552 212.3617 13.99917633994122

Track FENGYUN 1C DEB in real time with AllMySat

Download on the App Store